Time,TemperatureF,DewpointF,PressureIn,WindDirection,WindDirectionDegrees,WindSpeedMPH,WindSpeedGustMPH,Humidity,HourlyPrecipIn,Conditions,Clouds,dailyrainin,SoftwareType,DateUTC
2013-07-17 00:00:00,69.7,52.8,29.87,East,98,3.0,4.0,55,0.00,,---,0.00,VWS V14.01,2013-07-17 07:00:00,
2013-07-17 00:04:00,69.9,52.5,29.88,East,92,5.0,7.0,54,0.00,,---,0.00,VWS V14.01,2013-07-17 07:04:00,
2013-07-17 00:05:00,70.2,52.8,29.88,ESE,103,2.0,7.0,54,0.00,,---,0.00,VWS V14.01,2013-07-17 07:05:00,
2013-07-17 00:09:00,70.3,52.9,29.88,ESE,103,0.0,2.0,54,0.00,,---,0.00,VWS V14.01,2013-07-17 07:09:00,
2013-07-17 00:10:00,70.3,53.4,29.87,ESE,110,0.0,2.0,55,0.00,,---,0.00,VWS V14.01,2013-07-17 07:10:00,
2013-07-17 00:14:00,70.1,53.2,29.87,ESE,110,1.0,1.0,55,0.00,,---,0.00,VWS V14.01,2013-07-17 07:14:00,
2013-07-17 00:15:00,70.0,52.6,29.87,East,97,3.0,3.0,54,0.00,,---,0.00,VWS V14.01,2013-07-17 07:15:00,
2013-07-17 00:19:00,70.3,52.9,29.87,East,99,3.0,3.0,54,0.00,,---,0.00,VWS V14.01,2013-07-17 07:19:00,
2013-07-17 00:20:00,70.5,52.6,29.87,East,97,4.0,4.0,53,0.00,,---,0.00,VWS V14.01,2013-07-17 07:20:00,
2013-07-17 00:24:00,70.6,52.1,29.88,ESE,104,5.0,5.0,52,0.00,,---,0.00,VWS V14.01,2013-07-17 07:24:00,
2013-07-17 00:25:00,70.8,52.8,29.87,East,82,3.0,5.0,53,0.00,,---,0.00,VWS V14.01,2013-07-17 07:25:00,
2013-07-17 00:29:00,70.7,54.2,29.87,ESE,115,3.0,5.0,56,0.00,,---,0.00,VWS V14.01,2013-07-17 07:29:00,
2013-07-17 00:30:00,70.4,54.9,29.87,East,97,3.0,5.0,58,0.00,,---,0.00,VWS V14.01,2013-07-17 07:30:00,
2013-07-17 00:34:00,70.1,55.1,29.87,East,98,5.0,6.0,59,0.00,,---,0.00,VWS V14.01,2013-07-17 07:34:00,
2013-07-17 00:35:00,70.0,55.0,29.87,ESE,103,4.0,6.0,59,0.00,,---,0.00,VWS V14.01,2013-07-17 07:35:00,
2013-07-17 00:39:00,70.0,55.0,29.88,East,94,2.0,4.0,59,0.00,,---,0.00,VWS V14.01,2013-07-17 07:39:00,
2013-07-17 00:40:00,70.0,55.5,29.88,WSW,246,2.0,4.0,60,0.00,,---,0.00,VWS V14.01,2013-07-17 07:40:00,
2013-07-17 00:44:00,69.8,54.8,29.88,WSW,246,0.0,2.0,59,0.00,,---,0.00,VWS V14.01,2013-07-17 07:44:00,
2013-07-17 00:45:00,69.6,54.7,29.88,WSW,246,1.0,2.0,59,0.00,,---,0.00,VWS V14.01,2013-07-17 07:45:00,
2013-07-17 00:49:00,69.6,54.7,29.88,ESE,103,1.0,1.0,59,0.00,,---,0.00,VWS V14.01,2013-07-17 07:49:00,
2013-07-17 00:50:00,69.6,54.2,29.88,East,95,1.0,1.0,58,0.00,,---,0.00,VWS V14.01,2013-07-17 07:50:00,
2013-07-17 00:54:00,69.8,54.4,29.88,East,95,0.0,1.0,58,0.00,,---,0.00,VWS V14.01,2013-07-17 07:54:00,
2013-07-17 00:55:00,69.8,53.9,29.88,East,95,0.0,1.0,57,0.00,,---,0.00,VWS V14.01,2013-07-17 07:55:00,
2013-07-17 00:59:00,69.8,54.4,29.88,East,95,0.0,1.0,58,0.00,,---,0.00,VWS V14.01,2013-07-17 07:59:00,
2013-07-17 01:00:00,69.7,53.8,29.88,East,95,0.0,1.0,57,0.00,,---,0.00,VWS V14.01,2013-07-17 08:00:00,
2013-07-17 01:04:00,69.7,53.8,29.88,East,95,1.0,1.0,57,0.00,,---,0.00,VWS V14.01,2013-07-17 08:04:00,
2013-07-17 01:05:00,69.9,54.5,29.88,East,82,4.0,5.0,58,0.00,,---,0.00,VWS V14.01,2013-07-17 08:05:00,
2013-07-17 01:09:00,70.1,55.1,29.87,ENE,76,3.0,5.0,59,0.00,,---,0.00,VWS V14.01,2013-07-17 08:09:00,
2013-07-17 01:10:00,70.1,55.6,29.87,East,90,3.0,5.0,60,0.00,,---,0.00,VWS V14.01,2013-07-17 08:10:00,
2013-07-17 01:14:00,70.1,55.6,29.87,East,91,5.0,5.0,60,0.00,,---,0.00,VWS V14.01,2013-07-17 08:14:00,
2013-07-17 01:15:00,70.1,55.6,29.87,East,93,3.0,5.0,60,0.00,,---,0.00,VWS V14.01,2013-07-17 08:15:00,
2013-07-17 01:19:00,70.1,55.6,29.87,East,92,3.0,5.0,60,0.00,,---,0.00,VWS V14.01,2013-07-17 08:19:00,
2013-07-17 01:20:00,70.0,55.5,29.87,ESE,107,2.0,5.0,60,0.00,,---,0.00,VWS V14.01,2013-07-17 08:20:00,
2013-07-17 01:24:00,69.9,55.4,29.87,East,101,0.0,2.0,60,0.00,,---,0.00,VWS V14.01,2013-07-17 08:24:00,
2013-07-17 01:25:00,69.8,55.3,29.88,ESE,103,0.0,2.0,60,0.00,,---,0.00,VWS V14.01,2013-07-17 08:25:00,
2013-07-17 01:29:00,69.6,55.6,29.88,ESE,103,0.0,0.0,61,0.00,,---,0.00,VWS V14.01,2013-07-17 08:29:00,
2013-07-17 01:30:00,69.3,55.3,29.88,ESE,103,0.0,1.0,61,0.00,,---,0.00,VWS V14.01,2013-07-17 08:30:00,
2013-07-17 01:34:00,69.0,55.5,29.88,ESE,103,0.0,1.0,62,0.00,,---,0.00,VWS V14.01,2013-07-17 08:34:00,
2013-07-17 01:35:00,68.8,55.3,29.88,SW,227,0.0,1.0,62,0.00,,---,0.00,VWS V14.01,2013-07-17 08:35:00,
2013-07-17 01:39:00,68.7,55.6,29.88,SW,228,0.0,0.0,63,0.00,,---,0.00,VWS V14.01,2013-07-17 08:39:00,
2013-07-17 01:40:00,68.4,55.8,29.89,SE,139,2.0,7.0,64,0.00,,---,0.00,VWS V14.01,2013-07-17 08:40:00,
2013-07-17 01:44:00,68.0,55.8,29.90,South,184,0.0,5.0,65,0.00,,---,0.00,VWS V14.01,2013-07-17 08:44:00,
2013-07-17 01:45:00,67.5,55.8,29.90,SSE,148,1.0,5.0,66,0.00,,---,0.00,VWS V14.01,2013-07-17 08:45:00,
2013-07-17 01:49:00,67.1,55.8,29.90,SSW,192,2.0,6.0,67,0.00,,---,0.00,VWS V14.01,2013-07-17 08:49:00,
2013-07-17 01:50:00,66.7,55.8,29.90,SSW,208,0.0,6.0,68,0.00,,---,0.00,VWS V14.01,2013-07-17 08:50:00,
2013-07-17 01:54:00,66.5,55.6,29.90,West,268,1.0,3.0,68,0.00,,---,0.00,VWS V14.01,2013-07-17 08:54:00,
2013-07-17 01:55:00,66.3,55.8,29.91,South,179,1.0,3.0,69,0.00,,---,0.00,VWS V14.01,2013-07-17 08:55:00,
2013-07-17 01:59:00,66.2,55.7,29.91,South,180,1.0,3.0,69,0.00,,---,0.00,VWS V14.01,2013-07-17 08:59:00,
2013-07-17 02:00:00,66.0,55.5,29.91,SSE,148,2.0,3.0,69,0.00,,---,0.00,VWS V14.01,2013-07-17 09:00:00,
2013-07-17 02:04:00,65.8,55.8,29.91,SSE,154,2.0,5.0,70,0.00,,---,0.00,VWS V14.01,2013-07-17 09:04:00,
2013-07-17 02:05:00,65.6,55.6,29.92,SSE,148,3.0,5.0,70,0.00,,---,0.00,VWS V14.01,2013-07-17 09:05:00,
2013-07-17 02:09:00,65.4,55.8,29.93,SE,134,1.0,5.0,71,0.00,,---,0.00,VWS V14.01,2013-07-17 09:09:00,
2013-07-17 02:10:00,65.2,55.6,29.93,SSE,159,2.0,8.0,71,0.00,,---,0.00,VWS V14.01,2013-07-17 09:10:00,
2013-07-17 02:14:00,65.0,55.4,29.94,South,173,1.0,4.0,71,0.00,,---,0.00,VWS V14.01,2013-07-17 09:14:00,
2013-07-17 02:15:00,64.9,55.3,29.94,East,98,3.0,4.0,71,0.00,,---,0.00,VWS V14.01,2013-07-17 09:15:00,
2013-07-17 02:19:00,64.9,55.3,29.93,North,356,0.0,4.0,71,0.00,,---,0.00,VWS V14.01,2013-07-17 09:19:00,
2013-07-17 02:20:00,64.9,55.3,29.93,SE,133,0.0,4.0,71,0.00,,---,0.00,VWS V14.01,2013-07-17 09:20:00,
2013-07-17 02:24:00,64.9,55.7,29.93,SSE,149,2.0,3.0,72,0.00,,---,0.00,VWS V14.01,2013-07-17 09:24:00,
2013-07-17 02:25:00,64.7,55.9,29.93,SE,143,1.0,3.0,73,0.00,,---,0.00,VWS V14.01,2013-07-17 09:25:00,
2013-07-17 02:29:00,64.5,56.4,29.93,SW,219,0.0,2.0,75,0.00,,---,0.00,VWS V14.01,2013-07-17 09:29:00,
2013-07-17 02:30:00,64.2,56.1,29.93,SSE,168,2.0,3.0,75,0.00,,---,0.00,VWS V14.01,2013-07-17 09:30:00,
2013-07-17 02:34:00,64.1,56.0,29.94,WSW,252,1.0,4.0,75,0.00,,---,0.00,VWS V14.01,2013-07-17 09:34:00,
2013-07-17 02:35:00,63.9,55.5,29.94,SW,231,0.0,5.0,74,0.00,,---,0.00,VWS V14.01,2013-07-17 09:35:00,
2013-07-17 02:39:00,63.9,55.8,29.94,WSW,240,1.0,2.0,75,0.00,,---,0.00,VWS V14.01,2013-07-17 09:39:00,
2013-07-17 02:40:00,63.8,56.1,29.94,WSW,240,0.0,5.0,76,0.00,,---,0.00,VWS V14.01,2013-07-17 09:40:00,
2013-07-17 02:44:00,63.7,56.0,29.94,SSW,199,4.0,4.0,76,0.00,,---,0.00,VWS V14.01,2013-07-17 09:44:00,
2013-07-17 02:45:00,63.6,55.5,29.94,SSE,154,1.0,6.0,75,0.00,,---,0.00,VWS V14.01,2013-07-17 09:45:00,
2013-07-17 02:49:00,63.5,55.8,29.94,WSW,250,1.0,4.0,76,0.00,,---,0.00,VWS V14.01,2013-07-17 09:49:00,
2013-07-17 02:50:00,63.3,56.0,29.94,WSW,252,4.0,5.0,77,0.01,,---,0.01,VWS V14.01,2013-07-17 09:50:00,
2013-07-17 02:54:00,63.1,55.8,29.93,WSW,242,3.0,4.0,77,0.01,,---,0.01,VWS V14.01,2013-07-17 09:54:00,
2013-07-17 02:55:00,62.9,55.6,29.93,WSW,251,1.0,4.0,77,0.01,,---,0.01,VWS V14.01,2013-07-17 09:55:00,
2013-07-17 02:59:00,62.7,56.1,29.94,WSW,248,2.0,5.0,79,0.01,,---,0.01,VWS V14.01,2013-07-17 09:59:00,
2013-07-17 03:00:00,62.5,55.9,29.95,SSE,163,2.0,5.0,79,0.01,,---,0.01,VWS V14.01,2013-07-17 10:00:00,
2013-07-17 03:04:00,62.4,55.8,29.95,SSE,153,0.0,5.0,79,0.01,,---,0.01,VWS V14.01,2013-07-17 10:04:00,
2013-07-17 03:05:00,62.2,56.0,29.96,SE,141,1.0,5.0,80,0.01,,---,0.01,VWS V14.01,2013-07-17 10:05:00,
2013-07-17 03:09:00,62.1,55.9,29.96,South,181,1.0,4.0,80,0.01,,---,0.01,VWS V14.01,2013-07-17 10:09:00,
2013-07-17 03:10:00,61.9,55.7,29.96,SSE,155,1.0,4.0,80,0.01,,---,0.01,VWS V14.01,2013-07-17 10:10:00,
2013-07-17 03:14:00,61.7,55.8,29.96,SSW,199,1.0,2.0,81,0.01,,---,0.01,VWS V14.01,2013-07-17 10:14:00,
2013-07-17 03:15:00,61.6,55.7,29.96,SW,232,1.0,2.0,81,0.01,,---,0.01,VWS V14.01,2013-07-17 10:15:00,
2013-07-17 03:19:00,61.6,55.7,29.97,SSE,164,1.0,5.0,81,0.01,,---,0.01,VWS V14.01,2013-07-17 10:19:00,
2013-07-17 03:20:00,61.5,55.6,29.97,SE,144,1.0,5.0,81,0.01,,---,0.01,VWS V14.01,2013-07-17 10:20:00,
2013-07-17 03:24:00,61.5,55.6,29.98,SE,139,1.0,2.0,81,0.01,,---,0.01,VWS V14.01,2013-07-17 10:24:00,
2013-07-17 03:25:00,61.5,55.6,29.98,SSE,161,1.0,2.0,81,0.01,,---,0.01,VWS V14.01,2013-07-17 10:25:00,
2013-07-17 03:29:00,61.5,55.3,29.98,ESE,103,3.0,4.0,80,0.01,,---,0.01,VWS V14.01,2013-07-17 10:29:00,
2013-07-17 03:30:00,61.6,55.4,29.98,SE,145,0.0,4.0,80,0.01,,---,0.01,VWS V14.01,2013-07-17 10:30:00,
2013-07-17 03:34:00,61.6,55.7,29.97,SE,145,0.0,1.0,81,0.01,,---,0.01,VWS V14.01,2013-07-17 10:34:00,
2013-07-17 03:35:00,61.6,55.7,29.98,NW,311,1.0,5.0,81,0.01,,---,0.01,VWS V14.01,2013-07-17 10:35:00,
2013-07-17 03:39:00,61.6,55.4,29.98,WSW,249,2.0,2.0,80,0.01,,---,0.01,VWS V14.01,2013-07-17 10:39:00,
2013-07-17 03:40:00,61.6,55.7,29.98,South,172,0.0,2.0,81,0.01,,---,0.01,VWS V14.01,2013-07-17 10:40:00,
2013-07-17 03:44:00,61.6,55.7,29.98,WSW,254,2.0,4.0,81,0.01,,---,0.01,VWS V14.01,2013-07-17 10:44:00,
2013-07-17 03:45:00,61.5,55.6,29.97,WSW,256,1.0,7.0,81,0.01,,---,0.01,VWS V14.01,2013-07-17 10:45:00,
2013-07-17 03:49:00,61.4,55.5,29.97,WSW,258,1.0,8.0,81,0.01,,---,0.01,VWS V14.01,2013-07-17 10:49:00,
2013-07-17 03:50:00,61.3,55.4,29.97,West,265,1.0,8.0,81,0.01,,---,0.01,VWS V14.01,2013-07-17 10:50:00,
2013-07-17 03:54:00,61.2,55.3,29.97,WSW,258,2.0,6.0,81,0.00,,---,0.01,VWS V14.01,2013-07-17 10:54:00,
2013-07-17 03:55:00,61.2,55.7,29.97,WNW,290,2.0,6.0,82,0.00,,---,0.01,VWS V14.01,2013-07-17 10:55:00,
2013-07-17 03:59:00,61.2,55.3,29.97,WSW,249,1.0,5.0,81,0.00,,---,0.01,VWS V14.01,2013-07-17 10:59:00,
2013-07-17 04:00:00,61.1,55.6,29.97,WSW,245,2.0,5.0,82,0.00,,---,0.01,VWS V14.01,2013-07-17 11:00:00,
2013-07-17 04:04:00,61.0,55.5,29.97,SW,222,1.0,2.0,82,0.00,,---,0.01,VWS V14.01,2013-07-17 11:04:00,
2013-07-17 04:05:00,60.9,55.4,29.98,SE,146,2.0,4.0,82,0.00,,---,0.01,VWS V14.01,2013-07-17 11:05:00,
2013-07-17 04:09:00,60.8,55.3,29.98,South,180,3.0,5.0,82,0.00,,---,0.01,VWS V14.01,2013-07-17 11:09:00,
2013-07-17 04:10:00,60.7,55.2,29.98,SSE,155,1.0,5.0,82,0.00,,---,0.01,VWS V14.01,2013-07-17 11:10:00,
2013-07-17 04:13:00,60.5,55.0,29.99,SSE,147,1.0,3.0,82,0.00,,---,0.01,VWS V14.01,2013-07-17 11:13:00,
2013-07-17 04:15:00,60.5,55.0,29.98,SE,144,3.0,7.0,82,0.00,,---,0.01,VWS V14.01,2013-07-17 11:15:00,
2013-07-17 04:19:00,60.4,54.9,29.98,SW,229,3.0,7.0,82,0.00,,---,0.01,VWS V14.01,2013-07-17 11:19:00,
2013-07-17 04:20:00,60.3,54.8,29.98,SSE,150,1.0,7.0,82,0.00,,---,0.01,VWS V14.01,2013-07-17 11:20:00,
2013-07-17 04:24:00,60.2,54.7,29.98,West,259,1.0,3.0,82,0.00,,---,0.01,VWS V14.01,2013-07-17 11:24:00,
2013-07-17 04:25:00,60.1,54.6,29.98,WSW,250,1.0,4.0,82,0.00,,---,0.01,VWS V14.01,2013-07-17 11:25:00,
2013-07-17 04:29:00,60.1,54.6,29.98,ESE,108,2.0,2.0,82,0.00,,---,0.01,VWS V14.01,2013-07-17 11:29:00,
2013-07-17 04:30:00,60.0,54.5,29.98,SSE,160,2.0,2.0,82,0.00,,---,0.01,VWS V14.01,2013-07-17 11:30:00,
2013-07-17 04:34:00,59.9,54.7,29.99,SE,146,1.0,3.0,83,0.00,,---,0.01,VWS V14.01,2013-07-17 11:34:00,
2013-07-17 04:35:00,59.9,54.7,29.99,SSE,158,2.0,7.0,83,0.00,,---,0.01,VWS V14.01,2013-07-17 11:35:00,
2013-07-17 04:39:00,59.9,54.7,29.99,SE,136,0.0,6.0,83,0.00,,---,0.01,VWS V14.01,2013-07-17 11:39:00,
2013-07-17 04:40:00,59.9,54.7,29.99,SSE,162,1.0,6.0,83,0.00,,---,0.01,VWS V14.01,2013-07-17 11:40:00,
2013-07-17 04:44:00,59.8,54.6,29.99,SE,139,2.0,3.0,83,0.00,,---,0.01,VWS V14.01,2013-07-17 11:44:00,
2013-07-17 04:45:00,59.8,54.6,29.99,SSE,156,3.0,5.0,83,0.00,,---,0.01,VWS V14.01,2013-07-17 11:45:00,
2013-07-17 04:49:00,59.8,54.6,30.00,WSW,255,0.0,3.0,83,0.00,,---,0.01,VWS V14.01,2013-07-17 11:49:00,
2013-07-17 04:50:00,59.8,54.6,30.00,ESE,109,2.0,3.0,83,0.00,,---,0.01,VWS V14.01,2013-07-17 11:50:00,
2013-07-17 04:54:00,59.8,54.3,30.00,SSE,161,3.0,4.0,82,0.00,,---,0.01,VWS V14.01,2013-07-17 11:54:00,
2013-07-17 04:55:00,59.8,54.6,30.00,ESE,104,2.0,7.0,83,0.00,,---,0.01,VWS V14.01,2013-07-17 11:55:00,
2013-07-17 04:59:00,59.8,54.6,30.00,SE,137,2.0,6.0,83,0.00,,---,0.01,VWS V14.01,2013-07-17 11:59:00,
2013-07-17 05:00:00,59.7,54.5,30.00,ESE,119,3.0,6.0,83,0.00,,---,0.01,VWS V14.01,2013-07-17 12:00:00,
2013-07-17 05:04:00,59.7,54.2,30.01,SE,141,3.0,5.0,82,0.00,,---,0.01,VWS V14.01,2013-07-17 12:04:00,
2013-07-17 05:05:00,59.7,54.2,30.01,SE,132,5.0,7.0,82,0.00,,---,0.01,VWS V14.01,2013-07-17 12:05:00,
2013-07-17 05:09:00,59.8,54.3,30.01,SE,144,3.0,8.0,82,0.00,,---,0.01,VWS V14.01,2013-07-17 12:09:00,
2013-07-17 05:10:00,59.8,54.3,30.01,SSE,150,0.0,8.0,82,0.00,,---,0.01,VWS V14.01,2013-07-17 12:10:00,
2013-07-17 05:14:00,59.7,54.2,30.01,South,170,3.0,6.0,82,0.00,,---,0.01,VWS V14.01,2013-07-17 12:14:00,
2013-07-17 05:15:00,59.7,54.2,30.01,SSE,149,1.0,6.0,82,0.00,,---,0.01,VWS V14.01,2013-07-17 12:15:00,
2013-07-17 05:19:00,59.7,54.2,30.01,SE,145,1.0,5.0,82,0.00,,---,0.01,VWS V14.01,2013-07-17 12:19:00,
2013-07-17 05:20:00,59.7,54.2,30.01,SSE,162,4.0,9.0,82,0.00,,---,0.01,VWS V14.01,2013-07-17 12:20:00,
2013-07-17 05:24:00,59.7,54.2,30.01,SSE,151,2.0,7.0,82,0.00,,---,0.01,VWS V14.01,2013-07-17 12:24:00,
2013-07-17 05:25:00,59.7,54.2,30.02,SSE,157,3.0,7.0,82,0.00,,---,0.01,VWS V14.01,2013-07-17 12:25:00,
2013-07-17 05:29:00,59.7,54.2,30.02,SW,226,5.0,7.0,82,0.00,,---,0.01,VWS V14.01,2013-07-17 12:29:00,
2013-07-17 05:30:00,59.7,54.2,30.02,SSE,159,2.0,7.0,82,0.00,,---,0.01,VWS V14.01,2013-07-17 12:30:00,
2013-07-17 05:33:00,59.7,54.2,30.02,SE,136,3.0,4.0,82,0.00,,---,0.01,VWS V14.01,2013-07-17 12:33:00,
2013-07-17 05:35:00,59.8,54.3,30.02,SSE,158,1.0,4.0,82,0.00,,---,0.01,VWS V14.01,2013-07-17 12:35:00,
2013-07-17 05:38:00,59.8,54.3,30.02,SSE,153,2.0,5.0,82,0.00,,---,0.01,VWS V14.01,2013-07-17 12:38:00,
2013-07-17 05:40:00,59.8,54.3,30.01,ESE,122,2.0,8.0,82,0.00,,---,0.01,VWS V14.01,2013-07-17 12:40:00,
2013-07-17 05:43:00,59.8,54.3,30.02,SSE,158,1.0,6.0,82,0.00,,---,0.01,VWS V14.01,2013-07-17 12:43:00,
2013-07-17 05:45:00,59.9,54.4,30.02,SSW,210,4.0,6.0,82,0.00,,---,0.01,VWS V14.01,2013-07-17 12:45:00,
2013-07-17 05:48:00,59.8,54.3,30.02,SSE,157,1.0,4.0,82,0.00,,---,0.01,VWS V14.01,2013-07-17 12:48:00,
2013-07-17 05:50:00,59.9,54.4,30.02,SE,129,3.0,5.0,82,0.00,,---,0.01,VWS V14.01,2013-07-17 12:50:00,
2013-07-17 05:53:00,59.9,54.4,30.02,South,184,1.0,5.0,82,0.00,,---,0.01,VWS V14.01,2013-07-17 12:53:00,
2013-07-17 05:55:00,59.9,54.4,30.02,South,186,2.0,6.0,82,0.00,,---,0.01,VWS V14.01,2013-07-17 12:55:00,
2013-07-17 05:58:00,59.9,54.4,30.02,SSE,153,1.0,6.0,82,0.00,,---,0.01,VWS V14.01,2013-07-17 12:58:00,
2013-07-17 06:00:00,60.0,54.5,30.02,SSE,165,0.0,6.0,82,0.00,,---,0.01,VWS V14.01,2013-07-17 13:00:00,
2013-07-17 06:03:00,60.0,54.5,30.02,SSE,148,1.0,2.0,82,0.00,,---,0.01,VWS V14.01,2013-07-17 13:03:00,
2013-07-17 06:05:00,60.0,54.5,30.02,SSE,148,1.0,5.0,82,0.00,,---,0.01,VWS V14.01,2013-07-17 13:05:00,
2013-07-17 06:08:00,60.0,54.5,30.02,ESE,115,1.0,3.0,82,0.00,,---,0.01,VWS V14.01,2013-07-17 13:08:00,
2013-07-17 06:10:00,60.1,54.6,30.02,SSE,168,3.0,4.0,82,0.00,,---,0.01,VWS V14.01,2013-07-17 13:10:00,
2013-07-17 06:13:00,60.1,54.6,30.02,SSE,153,4.0,7.0,82,0.00,,---,0.01,VWS V14.01,2013-07-17 13:13:00,
2013-07-17 06:15:00,60.1,54.6,30.02,SE,136,2.0,7.0,82,0.00,,---,0.01,VWS V14.01,2013-07-17 13:15:00,
2013-07-17 06:18:00,60.1,54.6,30.03,SSE,161,2.0,6.0,82,0.00,,---,0.01,VWS V14.01,2013-07-17 13:18:00,
2013-07-17 06:20:00,60.2,54.7,30.03,SE,131,3.0,6.0,82,0.00,,---,0.01,VWS V14.01,2013-07-17 13:20:00,
2013-07-17 06:23:00,60.2,54.7,30.03,SSW,202,1.0,3.0,82,0.00,,---,0.01,VWS V14.01,2013-07-17 13:23:00,
2013-07-17 06:25:00,60.2,54.7,30.03,ESE,103,1.0,3.0,82,0.00,,---,0.01,VWS V14.01,2013-07-17 13:25:00,
2013-07-17 06:28:00,60.2,54.7,30.03,SE,141,2.0,4.0,82,0.00,,---,0.01,VWS V14.01,2013-07-17 13:28:00,
2013-07-17 06:30:00,60.2,54.7,30.04,SE,146,2.0,5.0,82,0.00,,---,0.01,VWS V14.01,2013-07-17 13:30:00,
2013-07-17 06:33:00,60.2,54.7,30.03,SE,127,1.0,2.0,82,0.00,,---,0.01,VWS V14.01,2013-07-17 13:33:00,
2013-07-17 06:35:00,60.2,54.7,30.04,SSE,148,1.0,4.0,82,0.00,,---,0.01,VWS V14.01,2013-07-17 13:35:00,
2013-07-17 06:38:00,60.2,54.7,30.04,SSE,159,1.0,3.0,82,0.00,,---,0.01,VWS V14.01,2013-07-17 13:38:00,
2013-07-17 06:40:00,60.2,54.7,30.03,SE,138,3.0,7.0,82,0.00,,---,0.01,VWS V14.01,2013-07-17 13:40:00,
2013-07-17 06:43:00,60.2,54.7,30.03,SE,127,2.0,7.0,82,0.00,,---,0.01,VWS V14.01,2013-07-17 13:43:00,
2013-07-17 06:45:00,60.2,54.7,30.03,SSE,148,1.0,7.0,82,0.00,,---,0.01,VWS V14.01,2013-07-17 13:45:00,
2013-07-17 06:48:00,60.2,54.7,30.03,West,269,0.0,1.0,82,0.00,,---,0.01,VWS V14.01,2013-07-17 13:48:00,
2013-07-17 06:50:00,60.2,54.7,30.03,SSE,162,1.0,1.0,82,0.00,,---,0.01,VWS V14.01,2013-07-17 13:50:00,
2013-07-17 06:53:00,60.3,54.8,30.03,SSW,207,2.0,3.0,82,0.00,,---,0.01,VWS V14.01,2013-07-17 13:53:00,
2013-07-17 06:55:00,60.2,54.7,30.03,SSE,150,2.0,3.0,82,0.00,,---,0.01,VWS V14.01,2013-07-17 13:55:00,
2013-07-17 06:58:00,60.2,54.7,30.03,SE,136,1.0,3.0,82,0.00,,---,0.01,VWS V14.01,2013-07-17 13:58:00,
2013-07-17 07:00:00,60.2,54.7,30.03,SSE,160,0.0,3.0,82,0.00,,---,0.01,VWS V14.01,2013-07-17 14:00:00,
2013-07-17 07:03:00,60.2,54.7,30.03,SE,132,1.0,2.0,82,0.00,,---,0.01,VWS V14.01,2013-07-17 14:03:00,
2013-07-17 07:04:00,60.2,54.7,30.03,ESE,120,6.0,6.0,82,0.00,,---,0.01,VWS V14.01,2013-07-17 14:04:00,
2013-07-17 07:05:00,60.2,54.7,30.03,SSE,165,1.0,6.0,82,0.00,,---,0.01,VWS V14.01,2013-07-17 14:05:00,
2013-07-17 07:09:00,60.2,54.7,30.03,SSW,198,0.0,3.0,82,0.00,,---,0.01,VWS V14.01,2013-07-17 14:09:00,
2013-07-17 07:10:00,60.2,54.7,30.03,South,179,3.0,5.0,82,0.00,,---,0.01,VWS V14.01,2013-07-17 14:10:00,
2013-07-17 07:14:00,60.1,54.6,30.04,ESE,113,6.0,8.0,82,0.00,,---,0.01,VWS V14.01,2013-07-17 14:14:00,
2013-07-17 07:15:00,60.1,54.6,30.04,SSE,160,4.0,9.0,82,0.00,,---,0.01,VWS V14.01,2013-07-17 14:15:00,
2013-07-17 07:19:00,60.1,54.6,30.05,SW,220,5.0,8.0,82,0.01,,---,0.02,VWS V14.01,2013-07-17 14:19:00,
2013-07-17 07:20:00,60.1,54.6,30.05,SSE,167,1.0,8.0,82,0.01,,---,0.02,VWS V14.01,2013-07-17 14:20:00,
2013-07-17 07:24:00,60.1,54.6,30.05,SE,128,7.0,7.0,82,0.01,,---,0.02,VWS V14.01,2013-07-17 14:24:00,
2013-07-17 07:25:00,60.1,54.6,30.05,East,94,4.0,8.0,82,0.01,,---,0.02,VWS V14.01,2013-07-17 14:25:00,
2013-07-17 07:29:00,60.1,54.6,30.05,SE,136,2.0,8.0,82,0.01,,---,0.02,VWS V14.01,2013-07-17 14:29:00,
2013-07-17 07:30:00,60.0,54.5,30.05,SSE,153,3.0,8.0,82,0.01,,---,0.02,VWS V14.01,2013-07-17 14:30:00,
2013-07-17 07:34:00,60.0,54.5,30.06,ESE,123,4.0,6.0,82,0.01,,---,0.02,VWS V14.01,2013-07-17 14:34:00,
2013-07-17 07:35:00,60.1,54.6,30.06,SE,133,2.0,6.0,82,0.01,,---,0.02,VWS V14.01,2013-07-17 14:35:00,
2013-07-17 07:39:00,60.1,54.6,30.06,SSE,153,3.0,6.0,82,0.01,,---,0.02,VWS V14.01,2013-07-17 14:39:00,
2013-07-17 07:40:00,60.1,54.6,30.06,SSE,160,2.0,9.0,82,0.01,,---,0.02,VWS V14.01,2013-07-17 14:40:00,
2013-07-17 07:44:00,60.1,54.6,30.06,SSE,160,4.0,6.0,82,0.01,,---,0.02,VWS V14.01,2013-07-17 14:44:00,
2013-07-17 07:45:00,60.1,54.6,30.06,ESE,123,3.0,6.0,82,0.01,,---,0.02,VWS V14.01,2013-07-17 14:45:00,
2013-07-17 07:49:00,60.1,54.6,30.07,SE,136,2.0,7.0,82,0.01,,---,0.02,VWS V14.01,2013-07-17 14:49:00,
2013-07-17 07:50:00,60.1,54.3,30.06,SE,125,3.0,8.0,81,0.01,,---,0.02,VWS V14.01,2013-07-17 14:50:00,
2013-07-17 07:54:00,60.3,54.5,30.07,SE,131,1.0,3.0,81,0.01,,---,0.02,VWS V14.01,2013-07-17 14:54:00,
2013-07-17 07:55:00,60.4,54.5,30.07,SSE,154,1.0,7.0,81,0.01,,---,0.02,VWS V14.01,2013-07-17 14:55:00,
2013-07-17 07:59:00,60.5,54.7,30.07,SE,141,4.0,9.0,81,0.01,,---,0.02,VWS V14.01,2013-07-17 14:59:00,
2013-07-17 08:00:00,60.7,54.8,30.07,SE,135,1.0,9.0,81,0.01,,---,0.02,VWS V14.01,2013-07-17 15:00:00,
2013-07-17 08:04:00,60.8,54.9,30.07,South,176,1.0,2.0,81,0.01,,---,0.02,VWS V14.01,2013-07-17 15:04:00,
2013-07-17 08:05:00,61.1,55.2,30.07,SE,143,2.0,3.0,81,0.01,,---,0.02,VWS V14.01,2013-07-17 15:05:00,
2013-07-17 08:09:00,61.1,54.9,30.07,SSE,157,2.0,6.0,80,0.01,,---,0.02,VWS V14.01,2013-07-17 15:09:00,
2013-07-17 08:10:00,61.1,54.9,30.08,ESE,116,4.0,6.0,80,0.01,,---,0.02,VWS V14.01,2013-07-17 15:10:00,
2013-07-17 08:14:00,61.2,55.0,30.08,South,183,3.0,4.0,80,0.01,,---,0.02,VWS V14.01,2013-07-17 15:14:00,
2013-07-17 08:15:00,61.2,55.0,30.08,SW,236,0.0,8.0,80,0.01,,---,0.02,VWS V14.01,2013-07-17 15:15:00,
2013-07-17 08:19:00,61.2,54.6,30.08,SSE,158,1.0,8.0,79,0.01,,---,0.02,VWS V14.01,2013-07-17 15:19:00,
2013-07-17 08:20:00,61.3,54.7,30.08,South,177,2.0,8.0,79,0.01,,---,0.02,VWS V14.01,2013-07-17 15:20:00,
2013-07-17 08:24:00,61.2,54.6,30.08,SSE,153,2.0,7.0,79,0.00,,---,0.02,VWS V14.01,2013-07-17 15:24:00,
2013-07-17 08:25:00,61.3,54.7,30.08,SSE,163,1.0,7.0,79,0.00,,---,0.02,VWS V14.01,2013-07-17 15:25:00,
2013-07-17 08:29:00,61.3,54.7,30.08,SSE,167,3.0,5.0,79,0.00,,---,0.02,VWS V14.01,2013-07-17 15:29:00,
2013-07-17 08:30:00,61.5,54.9,30.08,ESE,123,7.0,7.0,79,0.00,,---,0.02,VWS V14.01,2013-07-17 15:30:00,
2013-07-17 08:34:00,61.6,55.0,30.08,South,185,1.0,7.0,79,0.00,,---,0.02,VWS V14.01,2013-07-17 15:34:00,
2013-07-17 08:35:00,61.7,54.8,30.08,SW,229,3.0,9.0,78,0.00,,---,0.02,VWS V14.01,2013-07-17 15:35:00,
2013-07-17 08:39:00,61.9,55.3,30.08,SW,220,0.0,3.0,79,0.00,,---,0.02,VWS V14.01,2013-07-17 15:39:00,
2013-07-17 08:40:00,62.1,55.2,30.08,South,174,5.0,7.0,78,0.00,,---,0.02,VWS V14.01,2013-07-17 15:40:00,
2013-07-17 08:44:00,62.1,55.2,30.08,WSW,241,1.0,5.0,78,0.00,,---,0.02,VWS V14.01,2013-07-17 15:44:00,
2013-07-17 08:45:00,62.2,55.3,30.08,South,172,0.0,5.0,78,0.00,,---,0.02,VWS V14.01,2013-07-17 15:45:00,
2013-07-17 08:49:00,62.3,55.4,30.08,South,181,1.0,3.0,78,0.00,,---,0.02,VWS V14.01,2013-07-17 15:49:00,
2013-07-17 08:50:00,62.4,55.1,30.08,South,188,5.0,11.0,77,0.00,,---,0.02,VWS V14.01,2013-07-17 15:50:00,
2013-07-17 08:54:00,62.3,55.0,30.08,ESE,109,2.0,6.0,77,0.00,,---,0.02,VWS V14.01,2013-07-17 15:54:00,
2013-07-17 08:55:00,62.3,55.0,30.09,SSE,150,4.0,6.0,77,0.00,,---,0.02,VWS V14.01,2013-07-17 15:55:00,
2013-07-17 08:59:00,62.3,55.0,30.09,SE,146,2.0,7.0,77,0.00,,---,0.02,VWS V14.01,2013-07-17 15:59:00,
2013-07-17 09:00:00,62.4,55.5,30.09,SSE,163,1.0,7.0,78,0.00,,---,0.02,VWS V14.01,2013-07-17 16:00:00,
2013-07-17 09:04:00,62.5,55.2,30.09,WNW,295,1.0,6.0,77,0.00,,---,0.02,VWS V14.01,2013-07-17 16:04:00,
2013-07-17 09:05:00,62.6,55.3,30.09,SE,133,3.0,6.0,77,0.00,,---,0.02,VWS V14.01,2013-07-17 16:05:00,
2013-07-17 09:09:00,62.6,55.3,30.09,SSE,167,2.0,6.0,77,0.00,,---,0.02,VWS V14.01,2013-07-17 16:09:00,
2013-07-17 09:10:00,62.7,55.4,30.09,SW,236,0.0,6.0,77,0.00,,---,0.02,VWS V14.01,2013-07-17 16:10:00,
2013-07-17 09:14:00,62.9,55.6,30.09,SSE,156,3.0,4.0,77,0.00,,---,0.02,VWS V14.01,2013-07-17 16:14:00,
2013-07-17 09:15:00,63.0,55.7,30.09,SE,134,2.0,4.0,77,0.00,,---,0.02,VWS V14.01,2013-07-17 16:15:00,
2013-07-17 09:19:00,62.9,55.2,30.09,SSE,167,3.0,9.0,76,0.00,,---,0.02,VWS V14.01,2013-07-17 16:19:00,
2013-07-17 09:20:00,62.8,55.5,30.09,SE,131,0.0,9.0,77,0.00,,---,0.02,VWS V14.01,2013-07-17 16:20:00,
2013-07-17 09:24:00,63.0,56.0,30.09,WSW,254,0.0,2.0,78,0.00,,---,0.02,VWS V14.01,2013-07-17 16:24:00,
2013-07-17 09:25:00,63.0,55.7,30.09,SE,129,4.0,6.0,77,0.00,,---,0.02,VWS V14.01,2013-07-17 16:25:00,
2013-07-17 09:29:00,63.0,55.7,30.09,SE,136,2.0,6.0,77,0.00,,---,0.02,VWS V14.01,2013-07-17 16:29:00,
2013-07-17 09:30:00,62.9,55.6,30.09,SSE,153,1.0,6.0,77,0.00,,---,0.02,VWS V14.01,2013-07-17 16:30:00,
2013-07-17 09:34:00,62.9,55.6,30.09,South,186,1.0,6.0,77,0.00,,---,0.02,VWS V14.01,2013-07-17 16:34:00,
2013-07-17 09:35:00,63.1,55.8,30.09,SSW,197,4.0,6.0,77,0.00,,---,0.02,VWS V14.01,2013-07-17 16:35:00,
2013-07-17 09:39:00,63.2,55.5,30.09,SSE,158,1.0,6.0,76,0.00,,---,0.02,VWS V14.01,2013-07-17 16:39:00,
2013-07-17 09:40:00,63.2,55.9,30.09,SE,139,1.0,6.0,77,0.00,,---,0.02,VWS V14.01,2013-07-17 16:40:00,
2013-07-17 09:44:00,63.4,55.7,30.09,SSE,167,1.0,5.0,76,0.00,,---,0.02,VWS V14.01,2013-07-17 16:44:00,
2013-07-17 09:45:00,63.5,55.8,30.09,SE,135,0.0,5.0,76,0.00,,---,0.02,VWS V14.01,2013-07-17 16:45:00,
2013-07-17 09:49:00,63.7,56.0,30.09,SW,234,0.0,3.0,76,0.00,,---,0.02,VWS V14.01,2013-07-17 16:49:00,
2013-07-17 09:50:00,63.9,56.2,30.09,South,173,2.0,3.0,76,0.00,,---,0.02,VWS V14.01,2013-07-17 16:50:00,
2013-07-17 09:54:00,64.0,56.3,30.10,SSE,150,4.0,6.0,76,0.00,,---,0.02,VWS V14.01,2013-07-17 16:54:00,
2013-07-17 09:55:00,63.9,55.8,30.10,SE,129,1.0,6.0,75,0.00,,---,0.02,VWS V14.01,2013-07-17 16:55:00,
2013-07-17 09:59:00,63.9,56.2,30.10,SSW,193,0.0,3.0,76,0.00,,---,0.02,VWS V14.01,2013-07-17 16:59:00,
2013-07-17 10:00:00,63.9,55.8,30.10,SSE,154,3.0,7.0,75,0.00,,---,0.02,VWS V14.01,2013-07-17 17:00:00,
2013-07-17 10:04:00,63.8,55.7,30.10,SSE,148,2.0,6.0,75,0.00,,---,0.02,VWS V14.01,2013-07-17 17:04:00,
2013-07-17 10:05:00,63.8,55.7,30.10,SE,129,1.0,6.0,75,0.00,,---,0.02,VWS V14.01,2013-07-17 17:05:00,
2013-07-17 10:09:00,63.9,55.8,30.11,SW,225,0.0,4.0,75,0.00,,---,0.02,VWS V14.01,2013-07-17 17:09:00,
2013-07-17 10:10:00,64.1,56.0,30.11,South,179,1.0,5.0,75,0.00,,---,0.02,VWS V14.01,2013-07-17 17:10:00,
2013-07-17 10:14:00,64.3,55.8,30.11,SE,146,2.0,6.0,74,0.00,,---,0.02,VWS V14.01,2013-07-17 17:14:00,
2013-07-17 10:15:00,64.2,55.8,30.11,SSE,155,2.0,8.0,74,0.00,,---,0.02,VWS V14.01,2013-07-17 17:15:00,
2013-07-17 10:19:00,64.2,55.8,30.11,SE,133,1.0,5.0,74,0.00,,---,0.02,VWS V14.01,2013-07-17 17:19:00,
2013-07-17 10:20:00,64.3,55.8,30.11,SSE,155,1.0,5.0,74,0.00,,---,0.02,VWS V14.01,2013-07-17 17:20:00,
2013-07-17 10:24:00,64.5,56.0,30.11,SE,135,1.0,2.0,74,0.00,,---,0.02,VWS V14.01,2013-07-17 17:24:00,
2013-07-17 10:25:00,64.6,56.1,30.11,SE,141,2.0,3.0,74,0.00,,---,0.02,VWS V14.01,2013-07-17 17:25:00,
2013-07-17 10:29:00,64.6,56.1,30.11,WSW,238,0.0,6.0,74,0.00,,---,0.02,VWS V14.01,2013-07-17 17:29:00,
2013-07-17 10:30:00,64.7,56.2,30.11,WSW,240,0.0,6.0,74,0.00,,---,0.02,VWS V14.01,2013-07-17 17:30:00,
2013-07-17 10:34:00,64.8,56.3,30.11,WSW,255,1.0,2.0,74,0.00,,---,0.02,VWS V14.01,2013-07-17 17:34:00,
2013-07-17 10:35:00,64.8,56.0,30.12,SE,129,1.0,3.0,73,0.00,,---,0.02,VWS V14.01,2013-07-17 17:35:00,
2013-07-17 10:39:00,64.6,55.8,30.12,SW,221,3.0,6.0,73,0.00,,---,0.02,VWS V14.01,2013-07-17 17:39:00,
2013-07-17 10:40:00,64.6,56.1,30.12,SE,143,1.0,6.0,74,0.00,,---,0.02,VWS V14.01,2013-07-17 17:40:00,
2013-07-17 10:44:00,64.5,55.7,30.12,SSE,155,0.0,4.0,73,0.00,,---,0.02,VWS V14.01,2013-07-17 17:44:00,
2013-07-17 10:45:00,64.5,56.0,30.12,South,169,0.0,4.0,74,0.00,,---,0.02,VWS V14.01,2013-07-17 17:45:00,
2013-07-17 10:49:00,64.6,55.8,30.12,SW,225,1.0,3.0,73,0.00,,---,0.02,VWS V14.01,2013-07-17 17:49:00,
2013-07-17 10:50:00,64.6,55.8,30.12,WSW,250,1.0,5.0,73,0.00,,---,0.02,VWS V14.01,2013-07-17 17:50:00,
2013-07-17 10:54:00,64.7,55.9,30.12,WSW,249,1.0,4.0,73,0.00,,---,0.02,VWS V14.01,2013-07-17 17:54:00,
2013-07-17 10:55:00,64.6,55.8,30.12,SE,134,2.0,7.0,73,0.00,,---,0.02,VWS V14.01,2013-07-17 17:55:00,
2013-07-17 10:59:00,64.7,56.2,30.12,SSW,193,3.0,3.0,74,0.00,,---,0.02,VWS V14.01,2013-07-17 17:59:00,
2013-07-17 11:00:00,64.7,55.9,30.12,South,169,2.0,5.0,73,0.00,,---,0.02,VWS V14.01,2013-07-17 18:00:00,
2013-07-17 11:04:00,64.8,56.0,30.12,SSE,150,1.0,4.0,73,0.00,,---,0.02,VWS V14.01,2013-07-17 18:04:00,
2013-07-17 11:05:00,64.9,56.0,30.12,SE,146,1.0,4.0,73,0.00,,---,0.02,VWS V14.01,2013-07-17 18:05:00,
2013-07-17 11:09:00,65.0,56.2,30.12,SSW,198,0.0,6.0,73,0.00,,---,0.02,VWS V14.01,2013-07-17 18:09:00,
2013-07-17 11:10:00,65.1,56.6,30.13,SSE,153,1.0,6.0,74,0.00,,---,0.02,VWS V14.01,2013-07-17 18:10:00,
2013-07-17 11:14:00,65.2,56.0,30.13,South,188,5.0,5.0,72,0.00,,---,0.02,VWS V14.01,2013-07-17 18:14:00,
2013-07-17 11:15:00,65.1,55.9,30.13,SSE,158,1.0,6.0,72,0.00,,---,0.02,VWS V14.01,2013-07-17 18:15:00,
2013-07-17 11:19:00,65.1,55.9,30.13,South,170,2.0,4.0,72,0.00,,---,0.02,VWS V14.01,2013-07-17 18:19:00,
2013-07-17 11:20:00,65.2,56.3,30.13,SE,143,2.0,4.0,73,0.00,,---,0.02,VWS V14.01,2013-07-17 18:20:00,
2013-07-17 11:24:00,65.2,56.0,30.13,SSE,165,1.0,4.0,72,0.00,,---,0.02,VWS V14.01,2013-07-17 18:24:00,
2013-07-17 11:25:00,65.5,57.0,30.13,WSW,254,0.0,4.0,74,0.00,,---,0.02,VWS V14.01,2013-07-17 18:25:00,
2013-07-17 11:29:00,66.0,56.3,30.13,SSW,195,1.0,8.0,71,0.00,,---,0.02,VWS V14.01,2013-07-17 18:29:00,
2013-07-17 11:30:00,66.4,56.7,30.13,SSW,206,6.0,8.0,71,0.00,,---,0.02,VWS V14.01,2013-07-17 18:30:00,
2013-07-17 11:34:00,66.7,56.2,30.13,SSE,159,2.0,9.0,69,0.00,,---,0.02,VWS V14.01,2013-07-17 18:34:00,
2013-07-17 11:35:00,67.1,57.0,30.13,SSE,160,4.0,9.0,70,0.00,,---,0.02,VWS V14.01,2013-07-17 18:35:00,
2013-07-17 11:39:00,67.2,56.7,30.13,SW,218,1.0,6.0,69,0.00,,---,0.02,VWS V14.01,2013-07-17 18:39:00,
2013-07-17 11:40:00,67.1,56.6,30.13,SW,233,1.0,6.0,69,0.00,,---,0.02,VWS V14.01,2013-07-17 18:40:00,
2013-07-17 11:44:00,67.2,56.7,30.13,SSW,196,1.0,5.0,69,0.00,,---,0.02,VWS V14.01,2013-07-17 18:44:00,
2013-07-17 11:45:00,67.2,56.3,30.13,SW,217,3.0,10.0,68,0.00,,---,0.02,VWS V14.01,2013-07-17 18:45:00,
2013-07-17 11:49:00,67.0,56.1,30.13,SE,143,1.0,7.0,68,0.00,,---,0.02,VWS V14.01,2013-07-17 18:49:00,
2013-07-17 11:50:00,66.8,56.3,30.13,South,191,1.0,7.0,69,0.00,,---,0.02,VWS V14.01,2013-07-17 18:50:00,
2013-07-17 11:54:00,66.9,56.4,30.13,SSW,204,1.0,5.0,69,0.00,,---,0.02,VWS V14.01,2013-07-17 18:54:00,
2013-07-17 11:55:00,67.0,56.5,30.13,SSE,150,2.0,5.0,69,0.00,,---,0.02,VWS V14.01,2013-07-17 18:55:00,
2013-07-17 11:59:00,67.0,56.1,30.13,WSW,238,1.0,6.0,68,0.00,,---,0.02,VWS V14.01,2013-07-17 18:59:00,
2013-07-17 12:00:00,66.9,56.4,30.13,SSE,148,1.0,9.0,69,0.00,,---,0.02,VWS V14.01,2013-07-17 19:00:00,
2013-07-17 12:04:00,66.9,56.0,30.13,SSW,194,3.0,7.0,68,0.00,,---,0.02,VWS V14.01,2013-07-17 19:04:00,
2013-07-17 12:05:00,66.9,56.4,30.13,SSE,147,2.0,7.0,69,0.00,,---,0.02,VWS V14.01,2013-07-17 19:05:00,
2013-07-17 12:09:00,67.0,56.1,30.13,WSW,241,2.0,5.0,68,0.00,,---,0.02,VWS V14.01,2013-07-17 19:09:00,
2013-07-17 12:10:00,66.9,56.0,30.14,South,173,2.0,5.0,68,0.00,,---,0.02,VWS V14.01,2013-07-17 19:10:00,
2013-07-17 12:14:00,66.9,56.0,30.14,WSW,238,2.0,10.0,68,0.00,,---,0.02,VWS V14.01,2013-07-17 19:14:00,
2013-07-17 12:15:00,66.8,55.9,30.14,SSW,194,2.0,10.0,68,0.00,,---,0.02,VWS V14.01,2013-07-17 19:15:00,
2013-07-17 12:19:00,66.7,56.2,30.14,South,173,2.0,3.0,69,0.00,,---,0.02,VWS V14.01,2013-07-17 19:19:00,
2013-07-17 12:20:00,66.7,55.8,30.14,South,174,2.0,3.0,68,0.00,,---,0.02,VWS V14.01,2013-07-17 19:20:00,
2013-07-17 12:24:00,66.8,55.9,30.14,WSW,240,2.0,4.0,68,0.00,,---,0.02,VWS V14.01,2013-07-17 19:24:00,
2013-07-17 12:25:00,66.7,55.8,30.14,South,186,2.0,5.0,68,0.00,,---,0.02,VWS V14.01,2013-07-17 19:25:00,
2013-07-17 12:29:00,66.7,56.2,30.14,SE,124,2.0,7.0,69,0.00,,---,0.02,VWS V14.01,2013-07-17 19:29:00,
2013-07-17 12:30:00,66.8,55.9,30.14,SW,217,1.0,7.0,68,0.00,,---,0.02,VWS V14.01,2013-07-17 19:30:00,
2013-07-17 12:34:00,66.8,55.9,30.14,SSE,153,4.0,5.0,68,0.00,,---,0.02,VWS V14.01,2013-07-17 19:34:00,
2013-07-17 12:35:00,66.6,56.1,30.14,South,188,1.0,8.0,69,0.00,,---,0.02,VWS V14.01,2013-07-17 19:35:00,
2013-07-17 12:39:00,66.7,55.8,30.14,South,171,4.0,5.0,68,0.00,,---,0.02,VWS V14.01,2013-07-17 19:39:00,
2013-07-17 12:40:00,66.6,56.1,30.14,WSW,245,3.0,14.0,69,0.00,,---,0.02,VWS V14.01,2013-07-17 19:40:00,
2013-07-17 12:44:00,66.6,55.7,30.14,SW,233,6.0,7.0,68,0.00,,---,0.02,VWS V14.01,2013-07-17 19:44:00,
2013-07-17 12:45:00,66.7,55.8,30.14,WNW,295,2.0,8.0,68,0.00,,---,0.02,VWS V14.01,2013-07-17 19:45:00,
2013-07-17 12:49:00,66.8,55.9,30.14,SW,214,1.0,5.0,68,0.00,,---,0.02,VWS V14.01,2013-07-17 19:49:00,
2013-07-17 12:50:00,66.9,56.0,30.14,WSW,254,0.0,5.0,68,0.00,,---,0.02,VWS V14.01,2013-07-17 19:50:00,
2013-07-17 12:54:00,67.0,56.5,30.14,SSE,150,1.0,2.0,69,0.00,,---,0.02,VWS V14.01,2013-07-17 19:54:00,
2013-07-17 12:55:00,67.2,56.3,30.15,WSW,245,1.0,5.0,68,0.00,,---,0.02,VWS V14.01,2013-07-17 19:55:00,
2013-07-17 12:59:00,67.2,56.3,30.14,WSW,255,4.0,5.0,68,0.00,,---,0.02,VWS V14.01,2013-07-17 19:59:00,
2013-07-17 13:00:00,67.1,56.2,30.14,SSE,160,2.0,5.0,68,0.00,,---,0.02,VWS V14.01,2013-07-17 20:00:00,
2013-07-17 13:04:00,67.1,56.2,30.15,WNW,286,2.0,9.0,68,0.00,,---,0.02,VWS V14.01,2013-07-17 20:04:00,
2013-07-17 13:05:00,67.2,55.9,30.15,SSE,165,1.0,9.0,67,0.00,,---,0.02,VWS V14.01,2013-07-17 20:05:00,
2013-07-17 13:09:00,67.2,55.9,30.15,ESE,104,4.0,6.0,67,0.00,,---,0.02,VWS V14.01,2013-07-17 20:09:00,
2013-07-17 13:10:00,67.3,56.0,30.15,SSE,152,1.0,6.0,67,0.00,,---,0.02,VWS V14.01,2013-07-17 20:10:00,
2013-07-17 13:14:00,67.6,56.7,30.15,NNW,338,3.0,4.0,68,0.00,,---,0.02,VWS V14.01,2013-07-17 20:14:00,
2013-07-17 13:15:00,67.7,56.4,30.15,South,184,1.0,4.0,67,0.00,,---,0.02,VWS V14.01,2013-07-17 20:15:00,
2013-07-17 13:19:00,67.8,56.5,30.15,SSW,211,1.0,6.0,67,0.00,,---,0.02,VWS V14.01,2013-07-17 20:19:00,
2013-07-17 13:20:00,67.9,56.5,30.15,SW,215,2.0,6.0,67,0.00,,---,0.02,VWS V14.01,2013-07-17 20:20:00,
2013-07-17 13:24:00,68.1,56.3,30.15,South,182,9.0,9.0,66,0.00,,---,0.02,VWS V14.01,2013-07-17 20:24:00,
2013-07-17 13:25:00,68.2,56.4,30.15,South,184,2.0,9.0,66,0.00,,---,0.02,VWS V14.01,2013-07-17 20:25:00,
2013-07-17 13:29:00,68.4,56.6,30.15,WSW,250,1.0,5.0,66,0.00,,---,0.02,VWS V14.01,2013-07-17 20:29:00,
2013-07-17 13:30:00,68.6,56.8,30.15,SW,236,4.0,5.0,66,0.00,,---,0.02,VWS V14.01,2013-07-17 20:30:00,
2013-07-17 13:34:00,68.6,56.4,30.15,SE,146,2.0,4.0,65,0.00,,---,0.02,VWS V14.01,2013-07-17 20:34:00,
2013-07-17 13:35:00,68.6,56.4,30.15,West,264,1.0,9.0,65,0.00,,---,0.02,VWS V14.01,2013-07-17 20:35:00,
2013-07-17 13:39:00,68.8,56.6,30.15,WSW,248,1.0,4.0,65,0.00,,---,0.02,VWS V14.01,2013-07-17 20:39:00,
2013-07-17 13:40:00,68.7,56.0,30.15,SW,235,3.0,10.0,64,0.00,,---,0.02,VWS V14.01,2013-07-17 20:40:00,
2013-07-17 13:44:00,68.4,56.2,30.15,SSW,203,1.0,7.0,65,0.00,,---,0.02,VWS V14.01,2013-07-17 20:44:00,
2013-07-17 13:45:00,68.4,56.6,30.15,WSW,242,2.0,7.0,66,0.00,,---,0.02,VWS V14.01,2013-07-17 20:45:00,
2013-07-17 13:49:00,68.5,56.3,30.15,SE,133,5.0,5.0,65,0.00,,---,0.02,VWS V14.01,2013-07-17 20:49:00,
2013-07-17 13:50:00,68.3,56.1,30.15,SSE,165,3.0,5.0,65,0.00,,---,0.02,VWS V14.01,2013-07-17 20:50:00,
2013-07-17 13:54:00,68.3,56.5,30.15,SE,140,3.0,6.0,66,0.00,,---,0.02,VWS V14.01,2013-07-17 20:54:00,
2013-07-17 13:55:00,68.3,56.5,30.15,ESE,118,2.0,6.0,66,0.00,,---,0.02,VWS V14.01,2013-07-17 20:55:00,
2013-07-17 13:59:00,68.4,56.2,30.15,SSE,162,3.0,7.0,65,0.00,,---,0.02,VWS V14.01,2013-07-17 20:59:00,
2013-07-17 14:00:00,68.3,56.1,30.15,SSE,151,1.0,7.0,65,0.00,,---,0.02,VWS V14.01,2013-07-17 21:00:00,
2013-07-17 14:04:00,68.4,56.2,30.15,SSE,164,3.0,3.0,65,0.00,,---,0.02,VWS V14.01,2013-07-17 21:04:00,
2013-07-17 14:05:00,68.3,56.5,30.15,SSE,158,3.0,5.0,66,0.00,,---,0.02,VWS V14.01,2013-07-17 21:05:00,
2013-07-17 14:09:00,68.3,56.1,30.15,WSW,250,3.0,10.0,65,0.00,,---,0.02,VWS V14.01,2013-07-17 21:09:00,
2013-07-17 14:10:00,68.3,56.1,30.15,NW,307,2.0,10.0,65,0.00,,---,0.02,VWS V14.01,2013-07-17 21:10:00,
2013-07-17 14:14:00,68.2,56.0,30.15,WSW,249,1.0,4.0,65,0.00,,---,0.02,VWS V14.01,2013-07-17 21:14:00,
2013-07-17 14:15:00,68.2,56.4,30.15,WSW,248,1.0,4.0,66,0.00,,---,0.02,VWS V14.01,2013-07-17 21:15:00,
2013-07-17 14:19:00,68.4,56.2,30.15,SSE,158,2.0,6.0,65,0.00,,---,0.02,VWS V14.01,2013-07-17 21:19:00,
2013-07-17 14:20:00,68.4,56.6,30.15,SSE,160,1.0,6.0,66,0.00,,---,0.02,VWS V14.01,2013-07-17 21:20:00,
2013-07-17 14:24:00,68.5,55.9,30.15,SW,219,2.0,4.0,64,0.00,,---,0.02,VWS V14.01,2013-07-17 21:24:00,
2013-07-17 14:25:00,68.6,56.4,30.15,WSW,252,4.0,4.0,65,0.00,,---,0.02,VWS V14.01,2013-07-17 21:25:00,
2013-07-17 14:29:00,68.7,56.0,30.15,West,260,3.0,7.0,64,0.00,,---,0.02,VWS V14.01,2013-07-17 21:29:00,
2013-07-17 14:30:00,68.5,55.9,30.15,WSW,254,1.0,7.0,64,0.00,,---,0.02,VWS V14.01,2013-07-17 21:30:00,
2013-07-17 14:34:00,68.6,56.4,30.15,SSW,211,5.0,6.0,65,0.00,,---,0.02,VWS V14.01,2013-07-17 21:34:00,
2013-07-17 14:35:00,68.8,57.0,30.15,SW,224,1.0,6.0,66,0.00,,---,0.02,VWS V14.01,2013-07-17 21:35:00,
2013-07-17 14:39:00,69.1,56.4,30.15,WSW,252,2.0,3.0,64,0.00,,---,0.02,VWS V14.01,2013-07-17 21:39:00,
2013-07-17 14:40:00,69.1,56.4,30.15,West,259,1.0,5.0,64,0.00,,---,0.02,VWS V14.01,2013-07-17 21:40:00,
2013-07-17 14:44:00,69.0,56.8,30.15,SE,125,3.0,3.0,65,0.00,,---,0.02,VWS V14.01,2013-07-17 21:44:00,
2013-07-17 14:45:00,69.2,56.5,30.15,SW,236,1.0,4.0,64,0.00,,---,0.02,VWS V14.01,2013-07-17 21:45:00,
2013-07-17 14:49:00,69.0,56.3,30.15,SW,233,4.0,11.0,64,0.00,,---,0.02,VWS V14.01,2013-07-17 21:49:00,
2013-07-17 14:50:00,68.6,56.0,30.15,SW,222,5.0,11.0,64,0.00,,---,0.02,VWS V14.01,2013-07-17 21:50:00,
2013-07-17 14:54:00,68.4,55.8,30.15,SSW,198,1.0,5.0,64,0.00,,---,0.02,VWS V14.01,2013-07-17 21:54:00,
2013-07-17 14:55:00,68.5,56.7,30.15,WSW,240,1.0,6.0,66,0.00,,---,0.02,VWS V14.01,2013-07-17 21:55:00,
2013-07-17 14:58:00,68.7,56.5,30.15,NW,324,1.0,3.0,65,0.00,,---,0.02,VWS V14.01,2013-07-17 21:58:00,
2013-07-17 15:00:00,68.8,56.6,30.15,WSW,250,2.0,5.0,65,0.00,,---,0.02,VWS V14.01,2013-07-17 22:00:00,
2013-07-17 15:03:00,68.6,56.0,30.15,West,262,2.0,8.0,64,0.00,,---,0.02,VWS V14.01,2013-07-17 22:03:00,
2013-07-17 15:05:00,68.4,55.8,30.15,SSE,155,2.0,8.0,64,0.00,,---,0.02,VWS V14.01,2013-07-17 22:05:00,
2013-07-17 15:08:00,68.4,56.2,30.15,SSE,150,0.0,3.0,65,0.00,,---,0.02,VWS V14.01,2013-07-17 22:08:00,
2013-07-17 15:10:00,68.6,56.4,30.15,SW,224,2.0,3.0,65,0.00,,---,0.02,VWS V14.01,2013-07-17 22:10:00,
2013-07-17 15:13:00,68.5,55.9,30.15,SSW,200,2.0,5.0,64,0.00,,---,0.02,VWS V14.01,2013-07-17 22:13:00,
2013-07-17 15:15:00,68.4,56.2,30.15,South,171,1.0,6.0,65,0.00,,---,0.02,VWS V14.01,2013-07-17 22:15:00,
2013-07-17 15:18:00,68.4,56.2,30.15,SSE,149,1.0,2.0,65,0.00,,---,0.02,VWS V14.01,2013-07-17 22:18:00,
2013-07-17 15:20:00,68.5,55.9,30.15,West,261,3.0,7.0,64,0.00,,---,0.02,VWS V14.01,2013-07-17 22:20:00,
2013-07-17 15:23:00,68.4,55.8,30.15,South,186,0.0,4.0,64,0.00,,---,0.02,VWS V14.01,2013-07-17 22:23:00,
2013-07-17 15:25:00,68.5,56.3,30.16,WSW,252,2.0,4.0,65,0.00,,---,0.02,VWS V14.01,2013-07-17 22:25:00,
2013-07-17 15:28:00,68.5,55.9,30.16,SSW,205,1.0,8.0,64,0.00,,---,0.02,VWS V14.01,2013-07-17 22:28:00,
2013-07-17 15:30:00,68.3,55.7,30.16,South,181,2.0,8.0,64,0.00,,---,0.02,VWS V14.01,2013-07-17 22:30:00,
2013-07-17 15:33:00,68.3,56.1,30.16,WSW,258,3.0,4.0,65,0.00,,---,0.02,VWS V14.01,2013-07-17 22:33:00,
2013-07-17 15:35:00,68.1,55.9,30.16,West,262,1.0,10.0,65,0.00,,---,0.02,VWS V14.01,2013-07-17 22:35:00,
2013-07-17 15:38:00,68.1,55.9,30.16,SW,217,5.0,5.0,65,0.00,,---,0.02,VWS V14.01,2013-07-17 22:38:00,
2013-07-17 15:40:00,68.1,55.9,30.16,SSE,158,3.0,5.0,65,0.00,,---,0.02,VWS V14.01,2013-07-17 22:40:00,
2013-07-17 15:43:00,68.1,55.9,30.16,WSW,256,3.0,4.0,65,0.00,,---,0.02,VWS V14.01,2013-07-17 22:43:00,
2013-07-17 15:45:00,68.1,55.9,30.16,WSW,252,1.0,4.0,65,0.00,,---,0.02,VWS V14.01,2013-07-17 22:45:00,
2013-07-17 15:48:00,68.1,55.9,30.16,SW,236,4.0,4.0,65,0.00,,---,0.02,VWS V14.01,2013-07-17 22:48:00,
2013-07-17 15:50:00,67.9,55.7,30.16,West,259,1.0,9.0,65,0.00,,---,0.02,VWS V14.01,2013-07-17 22:50:00,
2013-07-17 15:53:00,68.0,55.8,30.16,WNW,291,4.0,4.0,65,0.00,,---,0.02,VWS V14.01,2013-07-17 22:53:00,
2013-07-17 15:55:00,68.3,56.1,30.16,WNW,302,3.0,5.0,65,0.00,,---,0.02,VWS V14.01,2013-07-17 22:55:00,
2013-07-17 15:58:00,68.4,55.8,30.16,WNW,294,3.0,5.0,64,0.00,,---,0.02,VWS V14.01,2013-07-17 22:58:00,
2013-07-17 16:00:00,68.3,55.7,30.16,West,270,2.0,9.0,64,0.00,,---,0.02,VWS V14.01,2013-07-17 23:00:00,
2013-07-17 16:03:00,68.4,55.8,30.16,West,259,3.0,11.0,64,0.00,,---,0.02,VWS V14.01,2013-07-17 23:03:00,
2013-07-17 16:05:00,69.0,56.3,30.16,WSW,238,1.0,12.0,64,0.00,,---,0.02,VWS V14.01,2013-07-17 23:05:00,
2013-07-17 16:08:00,69.4,56.3,30.15,SW,226,2.0,7.0,63,0.00,,---,0.02,VWS V14.01,2013-07-17 23:08:00,
2013-07-17 16:10:00,70.1,56.9,30.15,West,262,3.0,7.0,63,0.00,,---,0.02,VWS V14.01,2013-07-17 23:10:00,
2013-07-17 16:13:00,70.4,57.2,30.15,SSE,162,2.0,3.0,63,0.00,,---,0.02,VWS V14.01,2013-07-17 23:13:00,
2013-07-17 16:15:00,70.9,56.8,30.15,WSW,238,3.0,7.0,61,0.00,,---,0.02,VWS V14.01,2013-07-17 23:15:00,
2013-07-17 16:18:00,71.0,56.0,30.16,WSW,243,4.0,8.0,59,0.00,,---,0.02,VWS V14.01,2013-07-17 23:18:00,
2013-07-17 16:20:00,70.6,56.1,30.16,WSW,246,1.0,8.0,60,0.00,,---,0.02,VWS V14.01,2013-07-17 23:20:00,
2013-07-17 16:23:00,70.9,57.2,30.15,SW,219,2.0,3.0,62,0.00,,---,0.02,VWS V14.01,2013-07-17 23:23:00,
2013-07-17 16:25:00,71.0,56.4,30.16,WSW,253,1.0,7.0,60,0.00,,---,0.02,VWS V14.01,2013-07-17 23:25:00,
2013-07-17 16:28:00,71.1,57.0,30.15,South,186,3.0,5.0,61,0.00,,---,0.02,VWS V14.01,2013-07-17 23:28:00,
2013-07-17 16:30:00,71.5,56.9,30.15,SSW,211,1.0,5.0,60,0.00,,---,0.02,VWS V14.01,2013-07-17 23:30:00,
2013-07-17 16:33:00,71.7,57.1,30.15,ESE,112,1.0,3.0,60,0.00,,---,0.02,VWS V14.01,2013-07-17 23:33:00,
2013-07-17 16:35:00,71.5,56.4,30.15,SW,215,3.0,13.0,59,0.00,,---,0.02,VWS V14.01,2013-07-17 23:35:00,
2013-07-17 16:38:00,71.2,56.2,30.15,SSW,206,1.0,5.0,59,0.00,,---,0.02,VWS V14.01,2013-07-17 23:38:00,
2013-07-17 16:40:00,71.1,56.5,30.15,South,186,5.0,5.0,60,0.00,,---,0.02,VWS V14.01,2013-07-17 23:40:00,
2013-07-17 16:43:00,71.1,57.4,30.15,WSW,245,1.0,5.0,62,0.00,,---,0.02,VWS V14.01,2013-07-17 23:43:00,
2013-07-17 16:45:00,71.6,57.5,30.15,WSW,245,1.0,5.0,61,0.00,,---,0.02,VWS V14.01,2013-07-17 23:45:00,
2013-07-17 16:48:00,71.8,56.7,30.15,WSW,237,5.0,5.0,59,0.00,,---,0.02,VWS V14.01,2013-07-17 23:48:00,
2013-07-17 16:50:00,71.4,56.3,30.15,SE,138,0.0,5.0,59,0.00,,---,0.02,VWS V14.01,2013-07-17 23:50:00,
2013-07-17 16:53:00,71.2,57.1,30.15,WSW,248,2.0,5.0,61,0.00,,---,0.02,VWS V14.01,2013-07-17 23:53:00,
2013-07-17 16:55:00,70.7,56.2,30.15,West,265,1.0,7.0,60,0.00,,---,0.02,VWS V14.01,2013-07-17 23:55:00,
2013-07-17 16:58:00,70.5,56.4,30.15,SSW,201,1.0,2.0,61,0.00,,---,0.02,VWS V14.01,2013-07-17 23:58:00,
2013-07-17 17:00:00,70.4,56.3,30.15,SSE,162,1.0,4.0,61,0.00,,---,0.02,VWS V14.01,2013-07-18 00:00:00,
2013-07-17 17:03:00,70.4,56.8,30.15,SE,130,2.0,2.0,62,0.00,,---,0.02,VWS V14.01,2013-07-18 00:03:00,
2013-07-17 17:05:00,70.7,56.6,30.15,SSE,152,1.0,4.0,61,0.00,,---,0.02,VWS V14.01,2013-07-18 00:05:00,
2013-07-17 17:08:00,70.8,56.7,30.15,SW,229,1.0,4.0,61,0.00,,---,0.02,VWS V14.01,2013-07-18 00:08:00,
2013-07-17 17:10:00,71.0,56.9,30.15,WNW,302,2.0,4.0,61,0.00,,---,0.02,VWS V14.01,2013-07-18 00:10:00,
2013-07-17 17:13:00,70.9,56.3,30.15,SW,235,1.0,5.0,60,0.00,,---,0.02,VWS V14.01,2013-07-18 00:13:00,
2013-07-17 17:15:00,70.8,56.2,30.15,SW,221,2.0,6.0,60,0.00,,---,0.02,VWS V14.01,2013-07-18 00:15:00,
2013-07-17 17:18:00,70.9,56.3,30.15,SSW,206,1.0,4.0,60,0.00,,---,0.02,VWS V14.01,2013-07-18 00:18:00,
2013-07-17 17:20:00,71.1,56.1,30.15,WSW,243,2.0,7.0,59,0.00,,---,0.02,VWS V14.01,2013-07-18 00:20:00,
2013-07-17 17:23:00,71.3,56.7,30.15,West,276,2.0,10.0,60,0.00,,---,0.02,VWS V14.01,2013-07-18 00:23:00,
2013-07-17 17:25:00,71.4,56.3,30.15,South,170,1.0,10.0,59,0.00,,---,0.02,VWS V14.01,2013-07-18 00:25:00,
2013-07-17 17:28:00,71.2,55.7,30.15,WSW,239,2.0,7.0,58,0.00,,---,0.02,VWS V14.01,2013-07-18 00:28:00,
2013-07-17 17:30:00,71.0,56.0,30.15,WSW,243,0.0,7.0,59,0.00,,---,0.02,VWS V14.01,2013-07-18 00:30:00,
2013-07-17 17:33:00,71.0,56.4,30.15,SW,228,1.0,2.0,60,0.00,,---,0.02,VWS V14.01,2013-07-18 00:33:00,
2013-07-17 17:35:00,71.4,56.8,30.15,West,266,4.0,5.0,60,0.00,,---,0.02,VWS V14.01,2013-07-18 00:35:00,
2013-07-17 17:38:00,71.8,56.7,30.15,WSW,240,2.0,5.0,59,0.00,,---,0.02,VWS V14.01,2013-07-18 00:38:00,
2013-07-17 17:40:00,72.2,56.6,30.15,WSW,254,2.0,5.0,58,0.00,,---,0.02,VWS V14.01,2013-07-18 00:40:00,
2013-07-17 17:43:00,72.4,57.3,30.15,South,185,1.0,2.0,59,0.00,,---,0.02,VWS V14.01,2013-07-18 00:43:00,
2013-07-17 17:45:00,72.8,56.7,30.15,ESE,122,2.0,4.0,57,0.00,,---,0.02,VWS V14.01,2013-07-18 00:45:00,
2013-07-17 17:48:00,72.7,56.6,30.15,SSE,157,2.0,3.0,57,0.00,,---,0.02,VWS V14.01,2013-07-18 00:48:00,
2013-07-17 17:50:00,72.7,57.1,30.15,South,175,1.0,3.0,58,0.00,,---,0.02,VWS V14.01,2013-07-18 00:50:00,
2013-07-17 17:53:00,72.7,57.1,30.15,WNW,297,3.0,6.0,58,0.00,,---,0.02,VWS V14.01,2013-07-18 00:53:00,
2013-07-17 17:55:00,72.6,57.0,30.15,West,265,1.0,6.0,58,0.00,,---,0.02,VWS V14.01,2013-07-18 00:55:00,
2013-07-17 17:58:00,72.7,56.6,30.15,SSE,156,1.0,4.0,57,0.00,,---,0.02,VWS V14.01,2013-07-18 00:58:00,
2013-07-17 18:00:00,73.0,56.4,30.15,West,281,1.0,4.0,56,0.00,,---,0.02,VWS V14.01,2013-07-18 01:00:00,
2013-07-17 18:03:00,73.1,56.5,30.15,ESE,105,0.0,3.0,56,0.00,,---,0.02,VWS V14.01,2013-07-18 01:03:00,
2013-07-17 18:05:00,72.9,56.3,30.15,West,259,5.0,5.0,56,0.00,,---,0.02,VWS V14.01,2013-07-18 01:05:00,
2013-07-17 18:08:00,72.6,56.5,30.15,WSW,240,3.0,10.0,57,0.00,,---,0.02,VWS V14.01,2013-07-18 01:08:00,
2013-07-17 18:10:00,72.1,55.6,30.15,SW,229,4.0,10.0,56,0.00,,---,0.02,VWS V14.01,2013-07-18 01:10:00,
2013-07-17 18:13:00,71.9,56.3,30.15,West,269,2.0,4.0,58,0.00,,---,0.02,VWS V14.01,2013-07-18 01:13:00,
2013-07-17 18:15:00,72.0,56.0,30.15,West,271,2.0,4.0,57,0.00,,---,0.02,VWS V14.01,2013-07-18 01:15:00,
2013-07-17 18:18:00,71.9,56.3,30.15,WSW,257,1.0,5.0,58,0.00,,---,0.02,VWS V14.01,2013-07-18 01:18:00,
2013-07-17 18:20:00,72.3,56.7,30.15,SSW,210,7.0,8.0,58,0.00,,---,0.02,VWS V14.01,2013-07-18 01:20:00,
2013-07-17 18:23:00,72.1,56.0,30.15,WNW,285,7.0,10.0,57,0.00,,---,0.02,VWS V14.01,2013-07-18 01:23:00,
2013-07-17 18:25:00,71.7,56.2,30.15,WNW,297,3.0,10.0,58,0.00,,---,0.02,VWS V14.01,2013-07-18 01:25:00,
2013-07-17 18:28:00,71.7,55.7,30.15,WSW,244,7.0,7.0,57,0.00,,---,0.02,VWS V14.01,2013-07-18 01:28:00,
2013-07-17 18:30:00,71.5,56.0,30.15,West,264,3.0,8.0,58,0.00,,---,0.02,VWS V14.01,2013-07-18 01:30:00,
2013-07-17 18:33:00,71.3,55.8,30.15,WSW,252,2.0,6.0,58,0.00,,---,0.02,VWS V14.01,2013-07-18 01:33:00,
2013-07-17 18:35:00,71.4,56.3,30.15,SSE,158,1.0,6.0,59,0.00,,---,0.02,VWS V14.01,2013-07-18 01:35:00,
2013-07-17 18:38:00,71.6,56.5,30.15,WSW,252,1.0,5.0,59,0.00,,---,0.02,VWS V14.01,2013-07-18 01:38:00,
2013-07-17 18:40:00,72.0,56.9,30.15,SE,142,2.0,5.0,59,0.00,,---,0.02,VWS V14.01,2013-07-18 01:40:00,
2013-07-17 18:43:00,72.1,56.5,30.15,ESE,118,1.0,2.0,58,0.00,,---,0.02,VWS V14.01,2013-07-18 01:43:00,
2013-07-17 18:45:00,72.0,56.0,30.15,SSE,150,0.0,3.0,57,0.00,,---,0.02,VWS V14.01,2013-07-18 01:45:00,
2013-07-17 18:48:00,72.1,56.5,30.15,WSW,251,1.0,4.0,58,0.00,,---,0.02,VWS V14.01,2013-07-18 01:48:00,
2013-07-17 18:50:00,72.1,56.5,30.15,WSW,252,1.0,4.0,58,0.00,,---,0.02,VWS V14.01,2013-07-18 01:50:00,
2013-07-17 18:53:00,72.2,56.6,30.15,SSW,203,1.0,2.0,58,0.00,,---,0.02,VWS V14.01,2013-07-18 01:53:00,
2013-07-17 18:55:00,72.4,56.8,30.15,ESE,109,2.0,2.0,58,0.00,,---,0.02,VWS V14.01,2013-07-18 01:55:00,
2013-07-17 18:58:00,72.3,56.2,30.15,South,179,1.0,2.0,57,0.00,,---,0.02,VWS V14.01,2013-07-18 01:58:00,
2013-07-17 19:00:00,72.1,56.5,30.15,WSW,243,5.0,5.0,58,0.00,,---,0.02,VWS V14.01,2013-07-18 02:00:00,
2013-07-17 19:03:00,71.7,56.6,30.15,WSW,248,0.0,6.0,59,0.00,,---,0.02,VWS V14.01,2013-07-18 02:03:00,
2013-07-17 19:05:00,71.7,56.6,30.15,WSW,242,0.0,6.0,59,0.00,,---,0.02,VWS V14.01,2013-07-18 02:05:00,
2013-07-17 19:08:00,71.7,56.6,30.16,South,183,0.0,1.0,59,0.00,,---,0.02,VWS V14.01,2013-07-18 02:08:00,
2013-07-17 19:10:00,71.6,56.1,30.16,West,259,0.0,3.0,58,0.00,,---,0.02,VWS V14.01,2013-07-18 02:10:00,
2013-07-17 19:13:00,71.7,56.6,30.15,WSW,241,1.0,2.0,59,0.00,,---,0.02,VWS V14.01,2013-07-18 02:13:00,
2013-07-17 19:15:00,71.8,56.7,30.15,SSE,156,1.0,2.0,59,0.00,,---,0.02,VWS V14.01,2013-07-18 02:15:00,
2013-07-17 19:18:00,71.7,56.6,30.16,SSW,201,0.0,2.0,59,0.00,,---,0.02,VWS V14.01,2013-07-18 02:18:00,
2013-07-17 19:20:00,71.6,56.1,30.16,WNW,297,2.0,2.0,58,0.00,,---,0.02,VWS V14.01,2013-07-18 02:20:00,
2013-07-17 19:23:00,71.4,56.3,30.16,SSW,213,0.0,2.0,59,0.00,,---,0.02,VWS V14.01,2013-07-18 02:23:00,
2013-07-17 19:25:00,71.2,56.2,30.16,WSW,250,1.0,4.0,59,0.00,,---,0.02,VWS V14.01,2013-07-18 02:25:00,
2013-07-17 19:28:00,70.8,55.8,30.16,WSW,238,1.0,2.0,59,0.00,,---,0.02,VWS V14.01,2013-07-18 02:28:00,
2013-07-17 19:30:00,70.4,55.9,30.16,SSE,160,1.0,3.0,60,0.00,,---,0.02,VWS V14.01,2013-07-18 02:30:00,
2013-07-17 19:33:00,70.3,55.8,30.16,SE,135,1.0,2.0,60,0.00,,---,0.02,VWS V14.01,2013-07-18 02:33:00,
2013-07-17 19:35:00,70.3,56.2,30.16,WSW,250,1.0,2.0,61,0.00,,---,0.02,VWS V14.01,2013-07-18 02:35:00,
2013-07-17 19:38:00,70.5,56.4,30.16,WSW,245,0.0,1.0,61,0.00,,---,0.02,VWS V14.01,2013-07-18 02:38:00,
2013-07-17 19:40:00,70.8,56.2,30.15,SW,219,0.0,6.0,60,0.00,,---,0.02,VWS V14.01,2013-07-18 02:40:00,
2013-07-17 19:43:00,70.9,56.3,30.15,WSW,243,0.0,2.0,60,0.00,,---,0.02,VWS V14.01,2013-07-18 02:43:00,
2013-07-17 19:45:00,71.0,56.4,30.15,SSE,148,1.0,2.0,60,0.00,,---,0.02,VWS V14.01,2013-07-18 02:45:00,
2013-07-17 19:48:00,71.0,56.0,30.15,SSE,153,1.0,3.0,59,0.00,,---,0.02,VWS V14.01,2013-07-18 02:48:00,
2013-07-17 19:50:00,70.9,56.3,30.15,SW,229,2.0,3.0,60,0.00,,---,0.02,VWS V14.01,2013-07-18 02:50:00,
2013-07-17 19:53:00,70.8,55.8,30.15,WSW,254,0.0,3.0,59,0.00,,---,0.02,VWS V14.01,2013-07-18 02:53:00,
2013-07-17 19:55:00,70.6,55.6,30.15,WSW,239,2.0,3.0,59,0.00,,---,0.02,VWS V14.01,2013-07-18 02:55:00,
2013-07-17 19:58:00,70.2,55.7,30.15,WSW,248,1.0,4.0,60,0.00,,---,0.02,VWS V14.01,2013-07-18 02:58:00,
2013-07-17 20:00:00,70.0,56.0,30.15,WSW,243,0.0,4.0,61,0.00,,---,0.02,VWS V14.01,2013-07-18 03:00:00,
2013-07-17 20:03:00,69.9,55.8,30.15,SW,236,0.0,0.0,61,0.00,,---,0.02,VWS V14.01,2013-07-18 03:03:00,
2013-07-17 20:05:00,69.6,55.6,30.15,West,262,0.0,0.0,61,0.00,,---,0.02,VWS V14.01,2013-07-18 03:05:00,
2013-07-17 20:08:00,69.3,55.7,30.15,WSW,257,0.0,1.0,62,0.00,,---,0.02,VWS V14.01,2013-07-18 03:08:00,
2013-07-17 20:10:00,68.6,55.5,30.15,SW,233,1.0,2.0,63,0.00,,---,0.02,VWS V14.01,2013-07-18 03:10:00,
2013-07-17 20:13:00,68.3,55.2,30.16,SSW,213,0.0,1.0,63,0.00,,---,0.02,VWS V14.01,2013-07-18 03:13:00,
2013-07-17 20:15:00,67.9,55.3,30.16,SW,221,0.0,1.0,64,0.00,,---,0.02,VWS V14.01,2013-07-18 03:15:00,
2013-07-17 20:18:00,67.7,55.5,30.16,SW,221,0.0,1.0,65,0.00,,---,0.02,VWS V14.01,2013-07-18 03:18:00,
2013-07-17 20:20:00,67.4,55.2,30.16,SW,220,0.0,1.0,65,0.00,,---,0.02,VWS V14.01,2013-07-18 03:20:00,
2013-07-17 20:23:00,67.2,55.0,30.16,SE,140,0.0,1.0,65,0.00,,---,0.02,VWS V14.01,2013-07-18 03:23:00,
2013-07-17 20:25:00,66.9,55.2,30.16,SE,140,0.0,1.0,66,0.00,,---,0.02,VWS V14.01,2013-07-18 03:25:00,
2013-07-17 20:28:00,66.8,55.1,30.16,SE,140,0.0,1.0,66,0.00,,---,0.02,VWS V14.01,2013-07-18 03:28:00,
2013-07-17 20:30:00,66.6,55.3,30.16,South,174,0.0,1.0,67,0.00,,---,0.02,VWS V14.01,2013-07-18 03:30:00,
2013-07-17 20:33:00,66.4,55.1,30.16,SE,143,1.0,1.0,67,0.00,,---,0.02,VWS V14.01,2013-07-18 03:33:00,
2013-07-17 20:35:00,66.3,55.0,30.16,SE,129,0.0,4.0,67,0.00,,---,0.02,VWS V14.01,2013-07-18 03:35:00,
2013-07-17 20:38:00,66.2,55.3,30.16,SE,129,0.0,0.0,68,0.00,,---,0.02,VWS V14.01,2013-07-18 03:38:00,
2013-07-17 20:40:00,66.0,55.2,30.16,SE,129,0.0,0.0,68,0.00,,---,0.02,VWS V14.01,2013-07-18 03:40:00,
2013-07-17 20:43:00,65.9,55.0,30.16,SE,129,0.0,0.0,68,0.00,,---,0.02,VWS V14.01,2013-07-18 03:43:00,
2013-07-17 20:45:00,65.8,55.0,30.16,SE,136,0.0,0.0,68,0.00,,---,0.02,VWS V14.01,2013-07-18 03:45:00,
2013-07-17 20:48:00,65.7,55.3,30.16,SSE,150,0.0,0.0,69,0.00,,---,0.02,VWS V14.01,2013-07-18 03:48:00,
2013-07-17 20:50:00,65.5,55.1,30.16,SSE,151,0.0,0.0,69,0.00,,---,0.02,VWS V14.01,2013-07-18 03:50:00,
2013-07-17 20:53:00,65.5,55.1,30.16,ESE,118,0.0,0.0,69,0.00,,---,0.02,VWS V14.01,2013-07-18 03:53:00,
2013-07-17 20:55:00,65.4,55.0,30.16,SSW,193,0.0,1.0,69,0.00,,---,0.02,VWS V14.01,2013-07-18 03:55:00,
2013-07-17 20:58:00,65.3,54.9,30.16,South,181,0.0,0.0,69,0.00,,---,0.02,VWS V14.01,2013-07-18 03:58:00,
2013-07-17 21:00:00,65.2,55.2,30.16,South,181,0.0,1.0,70,0.00,,---,0.02,VWS V14.01,2013-07-18 04:00:00,
2013-07-17 21:01:00,65.2,55.2,30.16,South,181,0.0,1.0,70,0.00,,---,0.02,VWS V14.01,2013-07-18 04:01:00,
2013-07-17 21:05:00,65.0,55.0,30.17,SE,140,0.0,1.0,70,0.00,,---,0.02,VWS V14.01,2013-07-18 04:05:00,
2013-07-17 21:06:00,65.0,55.0,30.17,SSE,158,1.0,1.0,70,0.00,,---,0.02,VWS V14.01,2013-07-18 04:06:00,
2013-07-17 21:10:00,64.9,54.9,30.17,SE,141,0.0,1.0,70,0.00,,---,0.02,VWS V14.01,2013-07-18 04:10:00,
2013-07-17 21:11:00,64.9,54.9,30.17,SE,140,0.0,1.0,70,0.00,,---,0.02,VWS V14.01,2013-07-18 04:11:00,
2013-07-17 21:15:00,64.6,55.0,30.17,SE,140,0.0,1.0,71,0.00,,---,0.02,VWS V14.01,2013-07-18 04:15:00,
2013-07-17 21:16:00,64.6,55.0,30.17,SE,141,1.0,1.0,71,0.00,,---,0.02,VWS V14.01,2013-07-18 04:16:00,
2013-07-17 21:25:00,64.3,55.1,30.17,SE,141,1.0,1.0,72,0.00,,---,0.02,VWS V14.01,2013-07-18 04:25:00,
2013-07-17 21:30:00,64.2,55.0,30.17,SSE,161,0.0,1.0,72,0.00,,---,0.02,VWS V14.01,2013-07-18 04:30:00,
2013-07-17 21:35:00,64.0,54.8,30.17,SSE,161,0.0,0.0,72,0.00,,---,0.02,VWS V14.01,2013-07-18 04:35:00,
2013-07-17 21:40:00,63.9,55.1,30.17,SSE,150,0.0,1.0,73,0.00,,---,0.02,VWS V14.01,2013-07-18 04:40:00,
2013-07-17 21:45:00,63.7,54.9,30.17,SSE,150,0.0,0.0,73,0.00,,---,0.02,VWS V14.01,2013-07-18 04:45:00,
2013-07-17 21:50:00,63.5,54.7,30.18,SSE,150,0.0,0.0,73,0.00,,---,0.02,VWS V14.01,2013-07-18 04:50:00,
2013-07-17 21:55:00,63.3,54.9,30.18,SSW,199,0.0,1.0,74,0.00,,---,0.02,VWS V14.01,2013-07-18 04:55:00,
2013-07-17 22:00:00,63.3,54.9,30.18,SW,235,0.0,2.0,74,0.00,,---,0.02,VWS V14.01,2013-07-18 05:00:00,
2013-07-17 22:05:00,63.1,54.7,30.18,WSW,244,0.0,1.0,74,0.00,,---,0.02,VWS V14.01,2013-07-18 05:05:00,
2013-07-17 22:10:00,63.1,54.7,30.18,SW,231,0.0,3.0,74,0.00,,---,0.02,VWS V14.01,2013-07-18 05:10:00,
2013-07-17 22:15:00,63.0,54.6,30.18,SSE,153,0.0,1.0,74,0.00,,---,0.02,VWS V14.01,2013-07-18 05:15:00,
2013-07-17 22:20:00,63.0,55.0,30.18,WSW,245,0.0,1.0,75,0.00,,---,0.02,VWS V14.01,2013-07-18 05:20:00,
2013-07-17 22:25:00,62.8,54.8,30.18,WSW,249,0.0,0.0,75,0.00,,---,0.02,VWS V14.01,2013-07-18 05:25:00,
2013-07-17 22:30:00,62.6,54.6,30.18,SW,221,0.0,1.0,75,0.00,,---,0.02,VWS V14.01,2013-07-18 05:30:00,
2013-07-17 22:35:00,62.4,54.8,30.18,SW,224,0.0,1.0,76,0.00,,---,0.02,VWS V14.01,2013-07-18 05:35:00,
2013-07-17 22:40:00,62.2,54.5,30.17,SW,234,0.0,1.0,76,0.00,,---,0.02,VWS V14.01,2013-07-18 05:40:00,
2013-07-17 22:45:00,62.1,54.8,30.18,SE,146,0.0,1.0,77,0.00,,---,0.02,VWS V14.01,2013-07-18 05:45:00,
2013-07-17 22:50:00,61.9,54.6,30.17,SSE,150,0.0,0.0,77,0.00,,---,0.02,VWS V14.01,2013-07-18 05:50:00,
2013-07-17 22:55:00,61.7,54.4,30.17,SSW,213,0.0,1.0,77,0.00,,---,0.02,VWS V14.01,2013-07-18 05:55:00,
2013-07-17 23:00:00,61.5,54.6,30.18,WSW,241,0.0,1.0,78,0.00,,---,0.02,VWS V14.01,2013-07-18 06:00:00,
2013-07-17 23:05:00,61.3,54.4,30.18,WSW,241,1.0,1.0,78,0.00,,---,0.02,VWS V14.01,2013-07-18 06:05:00,
2013-07-17 23:10:00,61.0,54.5,30.18,WSW,241,0.0,0.0,79,0.00,,---,0.02,VWS V14.01,2013-07-18 06:10:00,
2013-07-17 23:15:00,60.8,54.3,30.18,WSW,241,0.0,0.0,79,0.00,,---,0.02,VWS V14.01,2013-07-18 06:15:00,
2013-07-17 23:20:00,60.4,54.2,30.18,WSW,241,0.0,0.0,80,0.00,,---,0.02,VWS V14.01,2013-07-18 06:20:00,
2013-07-17 23:25:00,60.2,54.0,30.18,SSW,203,0.0,1.0,80,0.00,,---,0.02,VWS V14.01,2013-07-18 06:25:00,
2013-07-17 23:30:00,60.1,53.9,30.18,SSW,203,0.0,0.0,80,0.00,,---,0.02,VWS V14.01,2013-07-18 06:30:00,
2013-07-17 23:35:00,59.9,54.1,30.18,SW,234,0.0,1.0,81,0.00,,---,0.02,VWS V14.01,2013-07-18 06:35:00,
2013-07-17 23:40:00,59.7,53.9,30.18,SW,234,0.0,1.0,81,0.00,,---,0.02,VWS V14.01,2013-07-18 06:40:00,
2013-07-17 23:45:00,59.6,53.8,30.18,SW,235,0.0,0.0,81,0.00,,---,0.02,VWS V14.01,2013-07-18 06:45:00,
2013-07-17 23:50:00,59.5,53.7,30.18,SW,234,0.0,1.0,81,0.00,,---,0.02,VWS V14.01,2013-07-18 06:50:00,
2013-07-17 23:54:00,59.5,54.0,30.18,SW,234,0.0,1.0,82,0.00,,---,0.02,VWS V14.01,2013-07-18 06:54:00,
2013-07-17 23:55:00,59.4,53.6,30.18,SW,234,0.0,1.0,81,0.00,,---,0.02,VWS V14.01,2013-07-18 06:55:00,
2013-07-17 23:59:00,59.3,53.8,30.18,SW,234,0.0,0.0,82,0.00,,---,0.02,VWS V14.01,2013-07-18 06:59:00,